Voltar ao catálogo

STARLINK-3910

AtivoComunicaçõesVLEO
NORAD 52586·PAYLOAD·🇺🇸 United States

Lançado May 13, 2022 de Vandenberg Space Force Base

Loading…

Próximas Passagens (próximas 24 horas)

TLE

AtualizadoSource: CelesTrak SupGP

Época: Sep 15, 2026, 02:29 UTC

1 52586C 22051BC  26258.10395833  .00045850  00000+0  13121-2 0  2580
2 52586  53.1593 342.9735 0001071  86.2579  16.1578 15.35369555    19

Acompanhe STARLINK-3910 em tempo real com AllMySat

Download on the App Store